Overview Statistics Trail Chart Weather Telemetry Raw packets
 

This is the latest recevied weather packets stored in our database for station/object LU3HGB-WX. If no packets are shown the sender has not sent any weather packets the latest 10 day(s).

<< 13 14 15 16 17 18 19 >>
Time Temp. Humidity Pressure Rain* Wind** Luminosity Snow
1788587559 3.33° C 72% 1021 hPa 0 mm - 0 W/m² -
1788587260 3.33° C 72% 1021 hPa 0 mm - 0 W/m² -
1788586960 3.33° C 71% 1021 hPa 0 mm - 0 W/m² -
1788586662 3.33° C 73% 1021 hPa 0 mm - 0 W/m² -
1788586359 3.33° C 72% 1021 hPa 0 mm - 0 W/m² -
1788586059 3.33° C 71% 1021 hPa 0 mm - 0 W/m² -
1788585760 3.33° C 73% 1021 hPa 0 mm - 0 W/m² -
1788585459 2.78° C 72% 1021 hPa 0 mm - 0 W/m² -
1788585159 2.78° C 75% 1021 hPa 0 mm - 0 W/m² -
1788584859 2.78° C 72% 1021 hPa 0 mm - 0 W/m² -
1788584559 3.33° C 72% 1021 hPa 0 mm - 0 W/m² -
1788584260 3.33° C 73% 1021 hPa 0 mm - 0 W/m² -
1788583960 3.33° C 73% 1021 hPa 0 mm - 0 W/m² -
1788583659 3.89° C 70% 1021 hPa 0 mm - 0 W/m² -
1788583359 3.89° C 69% 1021 hPa 0 mm - 0 W/m² -
1788583060 4.44° C 69% 1021 hPa 0 mm - 0 W/m² -
1788582759 4.44° C 67% 1021 hPa 0 mm - 0 W/m² -
1788582459 4.44° C 66% 1021 hPa 0 mm - 0 W/m² -
1788582160 4.44° C 67% 1021 hPa 0 mm - 0 W/m² -
1788581859 4.44° C 65% 1021 hPa 0 mm - 0 W/m² -
1788581559 4.44° C 67% 1021 hPa 0 mm - 0 W/m² -
1788581259 5° C 65% 1021 hPa 0 mm - 0 W/m² -
1788580959 5° C 65% 1021 hPa 0 mm - 0 W/m² -
1788580660 4.44° C 67% 1021 hPa 0 mm - 0 W/m² -
1788580360 5° C 68% 1021 hPa 0 mm - 0 W/m² -

* Rain latest hour (hover to see other rain measurements)
** Current wind speed in m/s (hover to see current wind gust speed)